User: anonymous   Login
Location: Newark
(45.2633°N, 19.8417°E)
Time: 21:03:30
(UTC+00:00)
Language:

STARLINK-2763 - Orbit

View from above orbital plane
View from above orbital plane
View from above satellite
View from above satellite

Ground track
Ground track

The orbit data is extracted from the following two-line orbital elements,

1 48670U 21044AJ  21266.50001157 -.00025919  00000-0 -17263-2 0  9991
2 48670  53.0460 220.8691 0001941  63.2489  68.0933 15.06423181 19279
Epoch (UTC): 23 September 2021 12:00:01
Eccentricity: 0.0001941
inclination: 53.0460°
perigee height: 546 km
apogee height: 548 km
right ascension of ascending node: 220.8691°
argument of perigee: 63.2489°
revolutions per day: 15.06423181
mean anomaly at epoch: 68.0933°
orbit number at epoch: 1927

The dashed part of the orbit path shows where the satellite is in the earth's shadow,  

DLR